Погода в Константиновске

Россия / Ростовская область     47°34′38″N   41°05′48″E
темп.,
°C
ветер,
м/с
пор.,
м/с
влажн.,
%
обл.,
%
осадки,
мм/ч
давл.,
гПа
погр.,
м
26 февраля, пт
пт2600:00−1зюз71591100 0.2 1026491
03:00+1з71594100 1.0 1024497
06:00+1з61396100 0.8 1023412
09:00+2зюз51099100 2.1 1022257
12:00+3зюз510100100 0.5 1022285
15:00+4зюз511100100 0.6 1021306
18:00+3зюз5109999 0.0 1020275
21:00+4зюз61298100 0.0 1020298
27 февраля, сб
сб2700:00+4зюз71496100 0.0 1018497
03:00+4з61595100 0.0 1017494
06:00+4зюз51395100 0.0 1015403
09:00+4зюз51296100 0.0 1015401
12:00+4зюз61493100 0.0 1013465
15:00+4з61295100 0.9 1012443
18:00+3з51096100 1.6 1012292
21:00+2з2496100 2.0 1013132
28 февраля, вс
вс2800:00+1з3594100 0.0 1013112
03:00+1сз4886100 0.0 1014359
06:00+1з3690100 0.0 1014204
09:00+2зсз468997 0.1 1015440
12:00+4сз467798 0.1 1016830
15:00+4сз467398 0.3 1016893
18:00+3сз3679100 0.1 1017228
21:00+1сз369099 0.1 1019220
1 марта, пн
пн100:000ссз359083 0.0 1020161
03:00−1ссв238381 0.0 1021195
06:00−2с128277 0.0 102342
09:00−1с227973 0.0 1024466
12:00+1с227190 0.0 1026741
15:00+1с237294 0.1 1026726
18:000с3475100 0.0 1027277
21:000с2374100 0.1 1030591
2 марта, вт
вт200:00−1с117597 0.0 1030179
03:00−1с128096 0.0 103153
06:00−2зсз118016 0.0 103125
09:000зсз34668 0.0 1031536
12:00+3з455350 0.0 10301053
15:00+4з575867 0.0 10271090
18:00+2зюз5107388 0.0 1025381
21:00+1зюз7128093 0.0 1024539